Location: Madrid
(40.4000°N, 3.6830°W)
Time: 22:44:03
(UTC+01:00)

X-37B - Visible Passes

Search period start: 15 January 2021 00:00
Search period end: 25 January 2021 00:00
Orbit: 384 x 390 km, 45.0° (Epoch: 02 January)

Date Brightness Start Highest point End Pass type
(mag) Time Alt. Az. Time Alt. Az. Time Alt. Az.
16 Jan 3.9 20:43:22 10° SW 20:43:27 11° SW 20:43:27 11° SW visible
17 Jan 2.1 19:45:26 10° SSW 19:47:55 23° SSE 19:47:55 23° SSE visible
18 Jan 3.0 18:48:14 10° S 18:49:47 13° SE 18:51:20 10° ESE visible
18 Jan 2.4 20:22:48 10° WSW 20:24:37 31° WSW 20:24:37 31° WSW visible
19 Jan 1.2 19:24:32 10° SW 19:27:34 43° SSE 19:28:57 26° E visible
19 Jan 4.2 21:01:07 10° W 21:01:14 11° W 21:01:14 11° W visible
20 Jan 0.8 20:02:29 10° WSW 20:05:31 64° NW 20:05:31 64° NW visible
21 Jan 0.6 19:03:58 10° WSW 19:07:09 78° SSE 19:09:46 14° ENE visible
21 Jan 3.4 20:40:58 10° WNW 20:42:03 18° WNW 20:42:03 18° WNW visible
22 Jan 1.3 19:42:17 10° W 19:45:22 45° NNW 19:46:16 34° NNE visible
23 Jan 2.4 20:20:48 10° WNW 20:22:44 26° NW 20:22:44 26° NW visible
24 Jan 1.6 19:22:08 10° WNW 19:25:08 36° N 19:26:56 19° NE visible
24 Jan 4.1 20:59:07 10° WNW 20:59:13 11° WNW 20:59:13 11° WNW visible
